Location: Mahannah Oil Field
(37.4664°N, 96.6003°W)
Time: 01:09:17
(UTC+00:00)

Tiros 1 despin weight - Pass Details

Date: 29 January 2021
Orbit: 593 x 642 km, 48.2° (Epoch: 25 February)

Event Time Altitude Azimuth Distance (km) Brightness Sun altitude
Rises 21:21:17 0° 293° (WNW) 2,895 ? 23.0°
Reaches altitude 10° 21:24:07 10° 310° (NW) 1,979 ? 22.6°
Maximum altitude 21:27:32 21° 359° (N) 1,404 ? 22.2°
Drops below altitude 10° 21:30:56 10° 48° (NE) 1,955 ? 21.7°
Sets 21:33:43 0° 65° (ENE) 2,850 ? 21.3°
